SL-3 R/B

Satellite information

Favourite Embed

Satellite Type and Status

ROCKET BODYIN ORBIT

Key statistics

Satellite SL-3 R/B at a glance.

Uptime

16845

Days in orbit

Revolutions

≈ 14.1

Per day

Orbit

LEO

Low Earth Orbit

Inclination

81.2

Latest

Satellite identification and parameters

Extended collection of information and parameters for SL-3 R/B.

Object identification

Identified? True

Debris? False

Object name: SL-3 R/B

International designator: 1979-095B

Object number (NORAD): 11608

Object ID (CCSDS): 11608

Country: COMMONWEALTH OF INDEPENDENT STATES (CIS)

Current information (Y/N): Y

RCS size: LARGE

Orbital parameters

Period: 102.379 minutes

Inclination: 81.2136 deg

SMA: 7249.389 km

Apoapsis: 910.722 km

Periapsis: 831.786 km

RAAN: 81.9491 deg

Eccentricy: 0.00544433

Argument of periapsis: 92.2842 deg

Mean anomaly: 268.4562 deg

Mean motion: 14.0653538 rev/day

Mean motion (dot): 0.00000293 rev/day2

B* drag term: 0.00016683906 1/REarth

Two-line elements (TLE)

Creation date: Dec. 12, 2025, 10:14 a.m.

Reference frame: TEME

Reference center: EARTH

Epoch: Dec. 12, 2025, 7:16 a.m. UTC

TLE line 0: 0 SL-3 R/B

TLE line 1: 1 11608U 79095B 25346.30312360 .00000293 00000-0 16684-3 0 9996

TLE line 2: 2 11608 81.2136 81.9491 0054443 92.2842 268.4562 14.06535380365549

Live tracking on map

Real-time ground track for satellite SL-3 R/B.

In-orbit conjunctions

A list of the most updated potential collisions computed for object SL-3 R/B.

Target Orbit TCA Probability of collision Miss distance Type
FENGYUN 1C DEB SSO 2025-11-01 00:37:22 0.002278772 80.0 (m) DEBRIS
FENGYUN 1C DEB SSO 2025-10-05 13:29:28 0.000231459 135.0 (m) DEBRIS
FENGYUN 1C DEB SSO 2025-06-23 20:15:18 0.0008184378 43.0 (m) DEBRIS
FENGYUN 1C DEB SSO 2024-12-13 04:48:39 0.0001451738 523.0 (m) DEBRIS
CZ-6A DEB SSO 2024-10-03 13:19:43 0.0001265571 643.0 (m) DEBRIS

Associated space launch

Second generation soviet meteorological satellite

SL-3 R/B was lifted into orbit during the mission ‘Vostok 8A92M | Meteor-2 5’, on board a Vostok 8A92M space rocket.

The launch took place on Oct. 31, 1979, 9:25 a.m. from 43/4 (43R).

For more information about the launch, click the button.

Launch to space Vostok 8A92M | Meteor-2 5
Vostok 8A92M | Meteor-2 5

Agency: N/A

Status: Launch Successful

Launch date: Oct. 31, 1979, 9:25 a.m. UTC

Rocket: Vostok 8A92M

Launch pad: 43/4 (43R)

Location: Plesetsk Cosmodrome, Russian Federation

...

Latest news about this satellite

There are no fresh news available about this satellite. Check back as we update our databases every day.


Newsletter sign-up

Weekly statistics, charts and insights to help you stay on top of the space industry.